BIAR

Akureyri Airport

Akureyri, Iceland
Issued Wind Visibility Ceiling Temperature Dew Point Humidity Barometer
Aug-20
22:00 UTC
280°
5 KTS
10,000+ meters   C
45° F
C
39° F
81% 30.15" Hg
1021 hPa
VFR
Aug-20
21:00 UTC
300°
6 KTS
10,000+ meters   C
46° F
C
39° F
76% 30.15" Hg
1021 hPa
VFR
Aug-20
20:00 UTC
330°
6 KTS
10,000+ meters   10° C
50° F
C
41° F
71% 30.15" Hg
1021 hPa
VFR
Aug-20
19:00 UTC
350°
7 KTS
10,000+ meters   10° C
50° F
C
41° F
71% 30.12" Hg
1020 hPa
VFR
Aug-20
18:00 UTC
350°
10 KTS
10,000+ meters Overcast
4,800' AGL
10° C
50° F
C
41° F
71% 30.12" Hg
1020 hPa
VFR
Aug-20
17:00 UTC
350°
8 KTS
10,000+ meters Broken
4,200' AGL
10° C
50° F
C
41° F
71% 30.12" Hg
1020 hPa
VFR
Aug-20
16:00 UTC
360°
8 KTS
10,000+ meters Broken
5,200' AGL
11° C
52° F
C
39° F
62% 30.12" Hg
1020 hPa
VFR
Aug-20
15:00 UTC
360°
7 KTS
10,000+ meters Broken
5,200' AGL
10° C
50° F
C
39° F
67% 30.12" Hg
1020 hPa
VFR
Aug-20
14:00 UTC
360°
7 KTS
10,000+ meters Broken
5,200' AGL
10° C
50° F
C
41° F
71% 30.12" Hg
1020 hPa
VFR
Aug-20
13:00 UTC
360°
6 KTS
10,000+ meters Overcast
5,200' AGL
C
48° F
C
39° F
71% 30.12" Hg
1020 hPa
VFR
Aug-20
12:00 UTC
150°
2 KTS
10,000+ meters Overcast
5,100' AGL
C
46° F
C
39° F
76% 30.12" Hg
1020 hPa
VFR
Aug-20
11:00 UTC
150°
2 KTS
10,000+ meters Overcast
5,000' AGL
C
45° F
C
39° F
81% 30.12" Hg
1020 hPa
VFR
Aug-20
10:00 UTC
180°
3 KTS
10,000+ meters Overcast
5,200' AGL
C
45° F
C
39° F
81% 30.12" Hg
1020 hPa
VFR
Aug-20
09:00 UTC
140°
2 KTS
10,000+ meters Overcast
5,600' AGL
C
43° F
C
37° F
81% 30.09" Hg
1019 hPa
VFR
Aug-20
08:00 UTC
10,000+ meters Overcast
5,900' AGL
C
43° F
C
39° F
87% 30.09" Hg
1019 hPa
VFR
Aug-20
07:00 UTC
10,000+ meters Overcast
5,500' AGL
C
41° F
C
37° F
87% 30.09" Hg
1019 hPa
VFR
Aug-20
06:00 UTC
10,000+ meters Overcast
6,600' AGL
C
39° F
C
37° F
93% 30.06" Hg
1018 hPa
VFR
Aug-20
05:00 UTC
10,000+ meters Overcast
6,700' AGL
C
37° F
C
36° F
93% 30.06" Hg
1018 hPa
VFR
Aug-20
04:00 UTC
140°
2 KTS
10,000+ meters Overcast
6,800' AGL
C
37° F
C
36° F
93% 30.06" Hg
1018 hPa
VFR
Aug-20
03:00 UTC
190°
1 KTS
10,000+ meters Overcast
6,800' AGL
C
37° F
C
36° F
93% 30.06" Hg
1018 hPa
VFR
Aug-20
02:00 UTC
10,000+ meters   C
37° F
C
36° F
93% 30.06" Hg
1018 hPa
VFR
Aug-20
01:00 UTC
10,000+ meters   C
39° F
C
36° F
87% 30.06" Hg
1018 hPa
VFR
Aug-20
00:00 UTC
10,000+ meters   C
39° F
C
37° F
93% 30.06" Hg
1018 hPa
VFR